Flag for U.S.A. Weather past 2 weeks in Downey, California, U.S.A.

Now
61 °F

Overcast.


Feels Like: 61 °F
Forecast: 58 / 75 °F
Wind: 6 mph from Northeast

Location: Long Beach Airport

Current Time: May 3, 2015 at 1:53:30 AM

Latest Report: May 3, 2015 at 12:53 AM


Visibility: 10 mi

Pressure: 29.89 "Hg

Humidity: 75%

Dew point: 53 °F

Location of DowneyLocation

Historic Weather in Downey — Graph

°F

Downey temperature yesterday

Maximum temperature yesterday: 82 °F (at 11:53 AM)
Minimum temperature yesterday: 60 °F (at 4:53 AM)
Average temperature yesterday: 68 °F

Past Weeks' High & Low Weather Summary

 TemperatureHumidityPressure
High93 °F (Apr 29, 1:53 PM)90% (Apr 29, 2:53 AM)30.03 "Hg (Apr 29, 2:53 AM)
Low52 °F (Apr 26, 3:53 AM)12% (Apr 27, 1:53 PM)29.79 "Hg (Apr 29, 6:53 PM)
Average66 °F60%29.91 "Hg
* Reported Apr 17 11:53 PM — May 2 11:53 PM, Downey, Weather by CustomWeather, © 2015

Note: Actual official high and low records may vary slightly from our data, if they occured in-between our weather recording intervals... More about our weather records

Advertising

Downey weather history for previous 24 hours

 ConditionsComfort  
Time TempWeatherWind HumidityBarometerVisibility
11:53 PM
Sat, May 2
61 °FClear.5 mph75%29.89 "Hg10 mi
10:53 PM62 °FClear.8 mph75%29.88 "Hg10 mi
9:53 PM61 °FClear.5 mph78%29.86 "Hg9 mi
8:53 PM65 °FClear.8 mph63%29.85 "Hg10 mi
7:53 PM66 °FSunny.8 mph54%29.82 "Hg10 mi
6:53 PM69 °FSunny.10 mph49%29.80 "Hg10 mi
5:53 PM73 °FSunny.16 mph38%29.80 "Hg10 mi
4:53 PM76 °FSunny.13 mph36%29.80 "Hg10 mi
3:53 PM77 °FSunny.14 mph37%29.81 "Hg10 mi
2:53 PM78 °FSunny.14 mph31%29.83 "Hg10 mi
1:53 PM77 °FSunny.14 mph33%29.85 "Hg10 mi
12:53 PM81 °FSunny.9 mph27%29.86 "Hg10 mi
11:53 AM82 °FSunny.7 mph32%29.87 "Hg10 mi
10:53 AM76 °FSunny.5 mph43%29.88 "Hg10 mi
9:53 AM72 °FSunny.3 mph55%29.87 "Hg9 mi
8:53 AM70 °FSunny.No wind55%29.86 "Hg10 mi
7:53 AM64 °FSunny.No wind73%29.85 "Hg8 mi
6:53 AM60 °FClear.3 mph83%29.84 "Hg7 mi
5:53 AM61 °FClear.No wind81%29.83 "Hg9 mi
4:53 AM60 °FClear.No wind80%29.83 "Hg9 mi
3:53 AM61 °FClear.5 mph78%29.83 "Hg9 mi
2:53 AM62 °FClear.5 mph73%29.83 "Hg10 mi
1:53 AM63 °FClear.No wind73%29.85 "Hg10 mi
Weather by CustomWeather, © 2015

See weather overviewHow to use our weather pages